Погода в Нозовке

Погода в Нозовке : погода сейчас, прогноз погоды и архив. Всё, что Вы хотите узнать о погоде в Нозовке!

Поиск расширенной информации на нашем сайте:

Полезная информация: Алфавитный перечень дезсредств.

Другие новости

Новости СМИ2

Главная страница сайта

Новости сайта

02.10.2013

Напоминаем, что на нашем новом сайте вы можете получить высокодетализированные прогнозы погоды по пунктам России, СНГ и мира (включающие важные для авиации метеовеличины, такие как направление и скорость ветра, видимость, явления погоды, количество и форма облачности, нижняя и верхняя граница облачности), а также ознакомиться с разнообразными материалами по авиационной метеорологии и подборкой полезных ссылок на эту тему.

Сайт Метеоцентр.Азия посвящён разработке технологий оптимизации авиаметеорологического обслуживания, включая проектирование и перспективное создание нескольких автоматизированных авиаметеорологических систем:
- система выпуска высокодетальных прогностических карт явлений погоды для нижнего воздушного пространства по России и ближнему зарубежью;
- система верификации прогнозов TAF (выпускаемых синоптиками официальных АМСГ РФ и ближнего зарубежья) и AUTOTAF (выпускаемых сайтом Метеоцентр.Азия) - выявление ошибок, онлайн-сопоставление с фактической погодой METAR, автоматическое внесение коррективов в прогнозы при резком отклонении фактической погоды от прогноза, подсчёт оправдываемости прогнозов по элементам и в целом;
- система обработки, анализа и отображения авиаметеорологической информации для применения провайдерами метеорологической информации.

Рекомендуем: Купить clean point можно выгодно!

Погода в Нозовке - сегодня

Время (UTC), дата Ветер
(°,м/с) 
Видим.   Явления Облачность Т
(°С)
Тd
(°С)
f(%) Тe
(°С)
Pmin
(гПа)
dP
(гПа)
Po
(мм)
O2
(г/м3)
Тmin Tmax R s Состояние
почвы
06 24.02.17 140 (ЮВ) 20000 м  {снег}  10/10 600 м 
[Sc]
-0.2 -2.2 86 -1  1004  0.7  741  299           
09 24.02.17 160 (Ю) 20000 м    10/10 600 м 
[Sc]
+1.5 -2.1 77 1004.3  0.4  741  297           
12 24.02.17 150 (ЮВ) 20000 м    10/10 600 м 
[Sc]
+1 -3.1 74 -1  1004.8  0.5  741  298           
15 24.02.17 140 (ЮВ) 4000 м  слаб. снег  10/10 300 м 
[Ns]
+0.8 -2 82 1004.8  741  298    +1.7  0.0     
18 24.02.17 160 (Ю) 20000 м  {снег}  10/10 600 м 
[Sc]
+0.7 -2.1 81 -1  1004.6  -0.3  741  298           
21 24.02.17 150 (ЮВ) 20000 м    10/10 600 м 
[Sc]
+0.3 -2.6 81 -2  1003.9  -0.7  741  298           
00 25.02.17 160 (Ю) 20000 м    10/10 600 м 
[Sc]
-0.5 -2.9 84 -2  1002.8  -1.1  740  299           
03 25.02.17 140 (ЮВ) 4{10}  20000 м    10/10 600 м 
[Sc]
-1.2 -3.8 82 -4  1000.8  -2  738  299  -1.2    0.0  63  равномерный
сухой снег
100% 
06 25.02.17 150 (ЮВ) 4{10}  4000 м  слаб. снег  10/10 300 м 
[Ns]
-1.2 -2.5 91 -4  997.9  -2.8  736  298  -1.6         
09 25.02.17 180 (Ю) 5{11}  4000 м  слаб. снег  10/10 300 м 
[Ns]
+0.1 -1.3 90 -3  996.3  -1.4  735  296           
12 25.02.17 190 (Ю) 4000 м  слаб. снег  10/10 300 м 
[Ns]
+1 -0.4 90 -1  996.3  -0.1  735  295           
15 25.02.17 200 (Ю) 4000 м  слаб. дождь со снегом  10/10 300 м 
[Ns]
+0.5 -0.5 93 996.2  735  296    +1     
18 25.02.17 190 (Ю) 4000 м  слаб. снег{дождь}  10/10 300 м 
[Ns]
+0.8 -0.3 92 -1  996.2  735  295           
21 25.02.17 150 (ЮВ) 4000 м  слаб. снег  10/10 300 м 
[Ns]
+0.4 -0.6 93 994.6  -1.5  734  295           
00 26.02.17 170 (Ю) 4000 м  слаб. снег  10/10 300 м 
[Ns]
+0.3 -0.7 93 -1  991.6  -3  732  294           
03 26.02.17 200 (Ю) 4000 м  слаб. снег  10/10 300 м 
[Ns]
+0.4 -0.7 92 -1  990.1  -1.6  731  294  +0.2    64  равномерный
мокрый или
старый снег
100% 
06 26.02.17 250 (З) 6-11{14}  20000 м  {снег}  10/8 600 м средняя 
[Sc|Ac As]
-2 -5 80 -6  993.6  3.3  733  298  -2         
09 26.02.17 240 (ЮЗ) 5-10{15}  20000 м  в посл. час ливневой снег  9/8 600 м кучево-дожд., средняя 
[Cb cap|Ac und]
-2.3 -7.1 70 -6  997.5  3.8  736  300           
12 26.02.17 250 (З) 20000 м  позёмок{ливн. осадки}  9/6 600 м кучево-дожд., средняя 
[Cb cap|Ac und]
-3.3 -7.5 73 -6  999.4  1.8  737  301           
15 26.02.17 240 (ЮЗ) 6{11}  20000 м  позёмок{ливн. осадки}  10/10 600 м 
[Sc]
-4.5 -8.5 74 -9  1001.8  2.3  739  304    +0.4  0.9     
18 26.02.17 260 (З) 3{10}  20000 м  {ливн. осадки}  10/10 600 м 
[Sc]
-5.9 -9.7 74 -8  1003.4  1.5  740  306           
21 26.02.17 240 (ЮЗ) 20000 м  {снег}  4/4 600 м 
[Sc]
-6.9 -9.3 83 -8  1004.9  1.4  741  307           
00 27.02.17 220 (ЮЗ) 20000 м  {снег}  10/10 600 м 
[Sc]
-7.9 -10.5 82 -9  1004.9  -0.1  741  309           
03 27.02.17 230 (ЮЗ) 20000 м    9/6 600 м средняя 
[Sc|Ac und]
-8.8 -11.1 83 -10  1005.2  0.2  741  310  -10.9    0.0  65  равномерный
сухой снег
100% 
06 27.02.17 220 (ЮЗ) 20000 м    3/3 2000 м средняя 
[Ac und]
-6.9 -10.5 75 -10  1005.5  0.4  742  308           
Время (UTC), дата Ветер
(°,м/с) 
Видим.   Явления Облачность Т
(°С)
Тd
(°С)
f(%) Тe
(°С)
Pmin
(гПа)
dP
(гПа)
Po
(мм)
O2
(г/м3)
Тmin Tmax R s Состояние
почвы

Для получения пояснительной информации подведите курсор к названию столбца.

ПОГОДА в Нозовке - архив

Всё, что Вы хотите узнать о погоде в Нозовке - удобно и подробно!

Выберите нужную дату (начиная с 1 января 2015* года) и нажмите кнопку "Найти".
Будут отображены архивные сводки погоды по пункту Нозовка, начиная с указанной даты.


Отображать данные в формате CSV (для использования в таблицах Excel)


Внимание! Наш архив погоды предназначен исключительно для личного некоммерческого использования в познавательных целях. Если Вам необходимы официальные справки о состоянии погоды (для производственных, юридических, коммерческих и т.п. целей), обращайтесь в органы Росгидромета.

*Примечание: данная дата относится к архиву по метеостанциям СССР (Россия, СНГ, Балтия).
Архив по метеостанциям Зарубежной Европы и Азии (кроме Китая) хранится 10 дней, по другим регионам земного шара (Китай, Африка, Америка, Австралия, Океания) - 1 день.

Нозовка - район местоположения метеостанции


Название, широта, долгота, высота метеостанции:
Нозовка 57.1°ш. 54.8°д. 131 м над ур. моря [Российская Федерация]

Дополнительная информация

В oтличие oт бoльшинства пoгoдных сайтoв мы публикуем пoдрoбную метеoинфoрмацию в детальнoм прoфессиoнальнoм фoрмате.

Характеристики температуры и влажнoсти вoздуха измеряются на высoте 2 м в тени вдали oт зданий и деревьев.
Скoрoсть ветра измеряется на высoте 10 м (на урoвне рoста челoвека скoрoсть ветра ниже в 1.5-2 раза). Если метеoстанция нахoдится в гoрoде или в лесу, тo скoрoсть ветра занижена на 2-4 м/с пo сравнению с oткрытым местoм. Скoрoсть ветра над акватoриями крупных рек и oзёр, а также на вершинах хoлмoв на 2-5 м/с выше, чем в oбычных услoвиях.
Атмoсфернoе давление в разных тoчках местнoсти мoжет значительнo oтличаться oт давления на метеoстанции, в зависимoсти oт услoвий рельефа (при пoдъёме на 10 м давление пoнижается примернo на 1 мм рт.ст.).